FW1737 Weather Reports


Display with metric or nautical units.
time (UTC)temp
F
wind
direction
speed
MPH
gust
MPH
rain 1hr
in
rain 24hr
in
rain mn
in
humidity
%
barometer
mb
20260504081523 38 250 17.0 37.0 0.09 0.88 0.28 97 980.3
20260504060120 40 221 5.0 9.0 0.06 0.72 0.12 99 976.6
20260504050106 39 281 4.0 8.0 0.02 0.66 0.06 100 974.9
20260504044550 39 274 4.0 8.0 0.04 0.66 0.06 100 974.5
20260504043056 39 294 3.0 7.0 0.04 0.65 0.05 99 974.3
20260504041548 39 304 2.0 5.0 0.04 0.64 0.04 99 973.7
20260504040047 39 32 1.0 3.0 0.03 0.63 0.03 99 973.6
20260504034544 39 34 0.0 6.0 0.03 0.62 0.02 99 973.8
20260504033042 39 88 10.0 17.0 0.02 0.61 0.01 99 974.2
20260504031538 39 25 8.0 16.0 0.02 0.60 0.00 99 974.7
20260504030034 40 95 10.0 19.0 0.02 0.60 0.00 98 975.0
20260504024531 40 85 14.0 28.0 0.01 0.59 0.59 98 975.9
20260504023028 40 82 12.0 25.0 0.01 0.59 0.59 98 976.9
20260504021527 41 88 13.0 23.0 0.00 0.57 0.57 97 977.7
20260504020022 41 96 13.0 23.0 0.01 0.57 0.57 98 978.5
20260504014538 42 89 11.0 22.0 0.02 0.57 0.57 99 979.1
20260504013016 42 91 13.0 25.0 0.03 0.57 0.57 100 979.7
20260504011513 42 101 15.0 27.0 0.04 0.57 0.57 100 980.8
20260504010010 41 55 12.0 28.0 0.05 0.56 0.56 99 981.3
20260504004507 41 35 12.0 22.0 0.06 0.56 0.56 100 982.1
20260504003005 41 28 13.0 23.0 0.06 0.55 0.55 99 983.0
20260504001604 41 69 15.0 25.0 0.07 0.54 0.54 100 983.6
20260504000101 41 76 14.0 22.0 0.07 0.52 0.52 100 984.3
20260503234557 40 54 10.0 22.0 0.12 0.50 0.50 99 984.7
20260503233101 40 42 10.0 20.0 0.14 0.49 0.49 99 985.8
20260503231550 39 13 12.0 21.0 0.17 0.47 0.47 99 986.7
20260503230048 39 45 7.0 15.0 0.18 0.45 0.45 99 987.7
20260503224546 39 28 13.0 20.0 0.13 0.38 0.38 99 988.6
20260503223043 39 70 10.0 21.0 0.14 0.34 0.34 99 989.5
20260503221547 39 75 11.0 21.0 0.14 0.30 0.30 99 990.7
20260503220035 39 63 9.0 18.0 0.14 0.27 0.27 98 991.6
20260503214533 39 82 12.0 20.0 0.15 0.25 0.25 98 992.3
20260503213032 39 38 8.0 23.0 0.11 0.20 0.20 98 993.5
20260503211525 40 59 13.0 25.0 0.08 0.16 0.16 98 994.1
20260503210039 40 94 11.0 19.0 0.06 0.13 0.13 98 994.3
20260503204525 41 55 14.0 26.0 0.04 0.10 0.10 97 994.4
20260503203020 41 59 14.0 26.0 0.04 0.09 0.09 97 995.0
20260503201521 42 73 11.0 26.0 0.05 0.08 0.08 96 996.0
20260503200017 43 111 9.0 19.0 0.05 0.07 0.07 96 996.2
20260503194515 43 68 7.0 14.0 0.04 0.06 0.06 96 996.5
20260503193011 43 56 9.0 20.0 0.03 0.05 0.05 94 997.5
20260503191507 43 88 8.0 17.0 0.01 0.03 0.03 94 998.6
20260503190005 43 74 12.0 23.0 0.01 0.02 0.02 93 998.4
20260503183107 43 71 9.0 18.0 0.02 0.02 0.02 93 1000.4
20260503181557 43 56 7.0 15.0 0.02 0.02 0.02 91 1000.9
20260503180106 44 57 8.0 15.0 0.01 0.01 0.01 88 1001.8
20260503174550 45 56 6.0 12.0 0.00 0.00 0.00 82 1004.3
20260503173133 45 108 8.0 13.0 0.00 0.00 0.00 81 1005.2
20260503171547 47 104 9.0 15.0 0.00 0.00 0.00 81 1005.9